EW7836 Weather Reports


Display with metric or nautical units.
time (UTC)temp
F
wind
direction
speed
MPH
gust
MPH
rain 1hr
in
rain 24hr
in
rain mn
in
humidity
%
barometer
mb
20220516185622 83 91 0.0 0.0 0.00 0.00 0.00 35 1014.9
20220516185133 83 91 0.0 0.0 0.00 0.00 0.00 37 1014.9
20220516184617 82 91 0.0 0.0 0.00 0.00 0.00 38 1015.0
20220516184128 82 91 0.0 0.0 0.00 0.00 0.00 40 1014.9
20220516183617 82 91 0.0 0.0 0.00 0.00 0.00 36 1015.2
20220516183129 81 91 0.0 0.0 0.00 0.00 0.00 37 1015.2
20220516182618 82 90 0.0 0.0 0.00 0.00 0.00 35 1015.2
20220516182126 81 91 0.0 0.0 0.00 0.00 0.00 36 1015.2
20220516181616 81 91 0.0 0.0 0.00 0.00 0.00 37 1015.5
20220516181118 81 91 0.0 0.0 0.00 0.00 0.00 36 1015.5
20220516180626 81 91 0.0 0.0 0.00 0.00 0.00 35 1015.5
20220516180120 81 91 0.0 0.0 0.00 0.00 0.00 35 1015.6
20220516175632 81 91 0.0 0.0 0.00 0.00 0.00 34 1015.8
20220516175122 81 91 0.0 0.0 0.00 0.00 0.00 36 1015.8
20220516174633 80 90 0.0 0.0 0.00 0.00 0.00 36 1015.8
20220516174119 80 91 0.0 0.0 0.00 0.00 0.00 36 1015.9
20220516173631 80 91 0.0 0.0 0.00 0.00 0.00 37 1015.9
20220516173120 80 91 0.0 0.0 0.00 0.00 0.00 37 1015.9
20220516172632 79 91 0.0 0.0 0.00 0.00 0.00 40 1016.0
20220516172122 79 91 0.0 0.0 0.00 0.00 0.00 43 1016.0
20220516171631 79 91 0.0 0.0 0.00 0.00 0.00 37 1016.2
20220516171121 79 91 0.0 0.0 0.00 0.00 0.00 38 1016.3
20220516170629 79 91 0.0 0.0 0.00 0.00 0.00 40 1016.3
20220516170119 79 91 0.0 0.0 0.00 0.00 0.00 36 1016.3
20220516165631 79 91 0.0 0.0 0.00 0.00 0.00 37 1016.3
20220516165120 79 91 0.0 0.0 0.00 0.00 0.00 37 1016.4
20220516164631 79 91 0.0 0.0 0.00 0.00 0.00 37 1016.4
20220516164120 78 91 0.0 0.0 0.00 0.00 0.00 41 1016.5
20220516163632 78 91 0.0 0.0 0.00 0.00 0.00 41 1016.5
20220516163121 78 91 0.0 0.0 0.00 0.00 0.00 44 1016.6
20220516162632 77 91 0.0 0.0 0.00 0.00 0.00 44 1016.5
20220516162115 77 91 0.0 0.0 0.00 0.00 0.00 42 1016.6
20220516161624 77 91 0.0 0.0 0.00 0.00 0.00 44 1016.6
20220516161115 77 91 0.0 0.0 0.00 0.00 0.00 44 1016.5
20220516160624 77 91 0.0 0.0 0.00 0.00 0.00 43 1016.4
20220516160114 77 91 0.0 0.0 0.00 0.00 0.00 46 1016.6
20220516155622 76 91 0.0 0.0 0.00 0.00 0.00 45 1016.5
20220516155117 76 91 0.0 0.0 0.00 0.00 0.00 48 1016.6
20220516154626 75 91 0.0 0.0 0.00 0.00 0.00 50 1016.6
20220516154115 75 91 0.0 0.0 0.00 0.00 0.00 49 1016.5
20220516153627 75 91 0.0 0.0 0.00 0.00 0.00 49 1016.6
20220516153117 75 91 0.0 0.0 0.00 0.00 0.00 50 1016.8
20220516152626 74 91 0.0 0.0 0.00 0.00 0.00 51 1016.8
20220516152117 74 91 0.0 0.0 0.00 0.00 0.00 49 1016.6
20220516151625 74 96 0.0 0.0 0.00 0.00 0.00 51 1016.7
20220516151116 73 94 0.0 0.0 0.00 0.00 0.00 51 1016.7
20220516150626 73 113 0.0 0.0 0.00 0.00 0.00 54 1016.6
20220516150117 73 5 0.0 1.0 0.00 0.00 0.00 54 1016.6
20220516145626 72 323 0.0 0.0 0.00 0.00 0.00 56 1016.7
20220516145116 71 288 0.0 0.0 0.00 0.00 0.00 54 1016.7
20220516144625 71 277 0.0 0.0 0.00 0.00 0.00 58 1016.7
20220516144115 71 325 0.0 0.0 0.00 0.00 0.00 58 1016.7
20220516143624 70 331 0.0 6.0 0.00 0.00 0.00 60 1016.7
20220516143129 70 299 1.0 7.0 0.00 0.00 0.00 58 1016.7
20220516142618 69 255 1.0 7.0 0.00 0.00 0.00 60 1016.6
20220516142128 68 215 0.0 2.0 0.00 0.00 0.00 61 1016.7
20220516141617 68 256 0.0 4.0 0.00 0.00 0.00 63 1016.6
20220516141129 67 291 1.0 5.0 0.00 0.00 0.00 64 1016.6
20220516140617 66 270 1.0 5.0 0.00 0.00 0.00 64 1016.6
20220516140130 66 248 0.0 1.0 0.00 0.00 0.00 65 1016.6
20220516135619 65 264 0.0 5.0 0.00 0.00 0.00 66 1016.6
20220516135130 65 223 0.0 5.0 0.00 0.00 0.00 69 1016.7
20220516134619 65 263 0.0 3.0 0.00 0.00 0.00 69 1016.8
20220516134124 64 262 0.0 2.0 0.00 0.00 0.00 71 1016.8
20220516133617 63 269 0.0 1.0 0.00 0.00 0.00 72 1016.8
20220516133123 63 261 0.0 3.0 0.00 0.00 0.00 72 1016.8
20220516132633 62 276 0.0 3.0 0.00 0.00 0.00 74 1016.8
20220516132121 61 264 0.0 2.0 0.00 0.00 0.00 74 1016.7
20220516131633 61 262 0.0 2.0 0.00 0.00 0.00 75 1016.6
20220516131118 60 271 0.0 0.0 0.00 0.00 0.00 76 1016.7
20220516130629 59 272 0.0 0.0 0.00 0.00 0.00 77 1016.7
20220516130118 58 272 0.0 0.0 0.00 0.00 0.00 78 1016.9
20220516125630 58 272 0.0 0.0 0.00 0.00 0.00 79 1016.8
20220516125118 57 272 0.0 0.0 0.00 0.00 0.00 79 1016.8
20220516124629 57 272 0.0 0.0 0.00 0.00 0.00 80 1016.8
20220516124119 56 272 0.0 0.0 0.00 0.00 0.00 83 1016.9
20220516123629 55 272 0.0 0.0 0.00 0.00 0.00 86 1016.9
20220516123119 54 272 0.0 0.0 0.00 0.00 0.00 86 1016.8
20220516122631 54 272 0.0 0.0 0.00 0.00 0.00 87 1016.8
20220516122120 53 272 0.0 0.0 0.00 0.00 0.00 88 1016.7
20220516121631 52 273 0.0 0.0 0.00 0.00 0.00 89 1016.6
20220516121121 51 273 0.0 0.0 0.00 0.00 0.00 90 1016.6
20220516120632 50 273 0.0 0.0 0.00 0.00 0.00 90 1016.5
20220516120120 49 273 0.0 0.0 0.00 0.00 0.00 90 1016.5
20220516115630 49 273 0.0 2.0 0.00 0.00 0.00 90 1016.3
20220516115120 48 263 0.0 1.0 0.00 0.00 0.00 90 1016.4
20220516114632 48 263 0.0 0.0 0.00 0.00 0.00 90 1016.3
20220516114121 48 263 0.0 0.0 0.00 0.00 0.00 90 1016.3
20220516113632 48 263 0.0 0.0 0.00 0.00 0.00 90 1016.3
20220516113123 48 263 0.0 0.0 0.00 0.00 0.00 90 1016.3
20220516112616 48 263 0.0 0.0 0.00 0.00 0.00 90 1016.2
20220516112125 48 263 0.0 0.0 0.00 0.00 0.00 90 1016.1
20220516111614 47 263 0.0 0.0 0.00 0.00 0.00 90 1016.0
20220516111120 48 263 0.0 0.0 0.00 0.00 0.00 90 1016.1
20220516110632 47 263 0.0 0.0 0.00 0.00 0.00 90 1016.0
20220516110120 48 263 0.0 0.0 0.00 0.00 0.00 90 1015.9
20220516105631 48 263 0.0 0.0 0.00 0.00 0.00 90 1015.9
20220516105120 48 263 0.0 0.0 0.00 0.00 0.00 90 1015.8
20220516104631 48 263 0.0 0.0 0.00 0.00 0.00 90 1015.8
20220516104115 48 263 0.0 0.0 0.00 0.00 0.00 90 1015.8
20220516103624 47 263 0.0 0.0 0.00 0.00 0.00 89 1015.8
20220516103132 48 263 0.0 0.0 0.00 0.00 0.00 89 1015.8
20220516102622 48 263 0.0 0.0 0.00 0.00 0.00 89 1015.9
20220516102113 48 263 0.0 0.0 0.00 0.00 0.00 89 1015.9
20220516101623 48 263 0.0 0.0 0.00 0.00 0.00 89 1015.9
20220516101114 49 263 0.0 0.0 0.00 0.00 0.00 89 1015.9
20220516100622 49 263 0.0 0.0 0.00 0.00 0.00 89 1015.8
20220516100130 49 263 0.0 0.0 0.00 0.00 0.00 89 1015.7
20220516095619 49 263 0.0 0.0 0.00 0.00 0.00 89 1015.8
20220516095131 49 263 0.0 0.0 0.00 0.00 0.00 90 1016.0
20220516094620 48 263 0.0 0.0 0.00 0.00 0.00 89 1015.9
20220516094130 49 263 0.0 0.0 0.00 0.00 0.00 89 1015.9
20220516093615 49 263 0.0 0.0 0.00 0.00 0.00 89 1015.9
20220516093128 49 263 0.0 0.0 0.00 0.00 0.00 89 1015.9
20220516092616 49 263 0.0 0.0 0.00 0.00 0.00 89 1015.9
20220516092127 49 263 0.0 0.0 0.00 0.00 0.00 89 1016.0
20220516091616 49 263 0.0 0.0 0.00 0.00 0.00 89 1016.0
20220516091125 49 263 0.0 0.0 0.00 0.00 0.00 88 1016.1
20220516090619 49 263 0.0 0.0 0.00 0.00 0.00 89 1016.1
20220516090129 49 263 0.0 0.0 0.00 0.00 0.00 88 1016.1
20220516085618 50 263 0.0 0.0 0.00 0.01 0.00 88 1016.1
20220516085120 50 263 0.0 0.0 0.00 0.01 0.00 89 1016.1
20220516084630 50 263 0.0 0.0 0.00 0.01 0.00 88 1015.9
20220516084120 50 263 0.0 0.0 0.00 0.01 0.00 88 1016.0
20220516083632 50 263 0.0 0.0 0.00 0.01 0.00 88 1015.9
20220516083117 50 263 0.0 0.0 0.00 0.01 0.00 88 1015.9
20220516082627 50 263 0.0 0.0 0.00 0.01 0.00 88 1015.9
20220516082117 50 263 0.0 0.0 0.00 0.01 0.00 88 1015.8
20220516081625 50 263 0.0 0.0 0.00 0.01 0.00 87 1015.7
20220516081115 51 263 0.0 0.0 0.00 0.01 0.00 87 1015.7
20220516080625 51 263 0.0 0.0 0.00 0.01 0.00 88 1015.8
20220516080115 51 263 0.0 0.0 0.00 0.01 0.00 87 1015.9
20220516075625 51 263 0.0 0.0 0.00 0.01 0.00 88 1015.8
20220516075115 51 263 0.0 0.0 0.00 0.01 0.00 88 1015.8
20220516074626 51 263 0.0 0.0 0.00 0.01 0.00 88 1015.8
20220516074115 51 263 0.0 0.0 0.00 0.01 0.00 88 1015.8
20220516073626 51 263 0.0 0.0 0.00 0.01 0.00 88 1015.8
20220516073115 51 263 0.0 0.0 0.00 0.01 0.00 87 1015.6
20220516072626 51 263 0.0 0.0 0.00 0.01 0.00 87 1015.7
20220516072116 51 263 0.0 0.0 0.00 0.01 0.00 87 1015.6
20220516071628 51 263 0.0 0.0 0.00 0.01 0.00 87 1015.6
20220516071117 51 263 0.0 0.0 0.00 0.01 0.00 87 1015.7
20220516070629 52 263 0.0 0.0 0.00 0.01 0.00 87 1015.8
20220516070131 52 263 0.0 0.0 0.00 0.01 0.00 86 1015.8
20220516065616 52 263 0.0 0.0 0.00 0.01 0.00 86 1015.8
20220516065129 52 263 0.0 0.0 0.00 0.01 0.00 86 1015.8
20220516064623 52 263 0.0 0.0 0.00 0.01 0.00 85 1015.8
20220516064113 53 263 0.0 0.0 0.00 0.01 0.00 84 1015.7
20220516063623 54 263 0.0 0.0 0.00 0.01 0.00 84 1015.6
20220516063114 54 263 0.0 0.0 0.00 0.01 0.00 84 1015.6
20220516062624 54 263 0.0 0.0 0.00 0.01 0.00 85 1015.7
20220516062113 53 263 0.0 0.0 0.00 0.01 0.00 84 1015.7
20220516061623 53 263 0.0 0.0 0.00 0.01 0.00 84 1015.7
20220516061114 53 263 0.0 0.0 0.00 0.01 0.00 84 1015.5
20220516060624 54 263 0.0 0.0 0.00 0.01 0.00 83 1015.6
20220516060115 54 263 0.0 0.0 0.00 0.01 0.00 83 1015.5
20220516055624 54 263 0.0 0.0 0.00 0.01 0.00 84 1015.5
20220516055115 54 263 0.0 0.0 0.00 0.01 0.00 83 1015.4
20220516054625 54 263 0.0 0.0 0.00 0.01 0.00 83 1015.4
20220516054115 54 263 0.0 0.0 0.00 0.01 0.00 84 1015.3
20220516053625 54 263 0.0 0.0 0.00 0.01 0.00 83 1015.4
20220516053115 54 263 0.0 0.0 0.00 0.01 0.00 83 1015.4
20220516052627 54 263 0.0 0.0 0.00 0.01 0.00 83 1015.4
20220516052117 54 263 0.0 0.0 0.00 0.01 0.00 83 1015.3
20220516051628 54 263 0.0 0.0 0.00 0.01 0.00 83 1015.4
20220516051118 54 263 0.0 0.0 0.00 0.01 0.00 82 1015.5
20220516050629 55 262 0.0 0.0 0.00 0.01 0.00 82 1015.4
20220516050117 55 262 0.0 0.0 0.00 0.01 0.01 81 1015.4
20220516045628 55 262 0.0 0.0 0.00 0.01 0.01 79 1015.4
20220516045117 56 262 0.0 0.0 0.00 0.01 0.01 79 1015.4
20220516044628 56 262 0.0 0.0 0.00 0.01 0.01 79 1015.6
20220516044121 56 262 0.0 0.0 0.00 0.01 0.01 80 1015.6
20220516043631 55 262 0.0 0.0 0.00 0.01 0.01 82 1015.6
20220516043121 55 262 0.0 0.0 0.00 0.01 0.01 82 1015.6
20220516042633 55 262 0.0 0.0 0.00 0.01 0.01 81 1015.5
20220516042123 55 262 0.0 0.0 0.00 0.01 0.01 81 1015.5
20220516041627 56 262 0.0 0.0 0.00 0.01 0.01 81 1015.6
20220516041116 56 262 0.0 0.0 0.00 0.01 0.01 81 1015.6
20220516040629 56 262 0.0 0.0 0.00 0.01 0.01 81 1015.6
20220516040119 56 262 0.0 0.0 0.00 0.02 0.01 81 1015.8
20220516035630 56 259 0.0 0.0 0.00 0.02 0.01 80 1015.9
20220516035119 57 259 0.0 0.0 0.00 0.02 0.01 79 1015.9
20220516034631 57 259 0.0 0.0 0.00 0.02 0.01 78 1015.9
20220516034120 57 259 0.0 0.0 0.00 0.02 0.01 77 1015.9
20220516033631 57 259 0.0 0.0 0.00 0.02 0.01 77 1015.9
20220516033120 58 259 0.0 0.0 0.00 0.02 0.01 77 1016.0
20220516032632 58 259 0.0 0.0 0.00 0.02 0.01 76 1016.0
20220516032121 58 259 0.0 0.0 0.00 0.02 0.01 76 1016.1
20220516031632 58 259 0.0 0.0 0.00 0.02 0.01 75 1016.2
20220516031122 59 259 0.0 0.0 0.00 0.02 0.01 72 1016.2
20220516030633 59 259 0.0 0.0 0.00 0.02 0.01 72 1016.0
20220516030116 59 259 0.0 0.0 0.00 0.12 0.01 75 1016.0
20220516025625 59 259 0.0 0.0 0.00 0.12 0.01 75 1015.9
20220516025115 59 259 0.0 0.0 0.00 0.12 0.01 74 1015.8
20220516024624 59 259 0.0 0.0 0.00 0.12 0.01 73 1015.8
20220516024114 60 259 0.0 0.0 0.00 0.12 0.01 71 1015.9
20220516023623 60 259 0.0 0.0 0.00 0.12 0.01 71 1015.8
20220516023116 60 259 0.0 0.0 0.00 0.12 0.01 70 1015.9
20220516022628 62 259 0.0 0.0 0.00 0.12 0.01 65 1015.9
20220516022116 63 259 0.0 0.0 0.00 0.12 0.01 62 1015.8
20220516021629 63 259 0.0 0.0 0.00 0.12 0.01 62 1015.9
20220516021119 63 259 0.0 0.0 0.00 0.12 0.01 64 1016.0
20220516020630 64 259 0.0 0.0 0.00 0.12 0.01 59 1015.8
20220516020119 64 259 0.0 0.0 0.00 0.12 0.01 58 1015.8
20220516015630 65 259 0.0 0.0 0.00 0.12 0.01 58 1015.9
20220516015119 65 259 0.0 0.0 0.00 0.12 0.01 58 1015.8
20220516014631 65 259 0.0 0.0 0.00 0.12 0.01 57 1015.9
20220516014120 65 259 0.0 0.0 0.00 0.12 0.01 56 1015.6
20220516013631 66 261 0.0 0.0 0.00 0.12 0.01 56 1015.8
20220516013120 66 257 0.0 0.0 0.00 0.12 0.01 55 1015.7
20220516012631 66 257 0.0 3.0 0.00 0.12 0.01 55 1015.6
20220516012119 67 255 1.0 4.0 0.00 0.12 0.01 54 1015.5
20220516011629 67 252 1.0 4.0 0.00 0.12 0.01 54 1015.6
20220516011118 68 258 0.0 3.0 0.00 0.12 0.01 53 1015.6
20220516010629 68 249 0.0 4.0 0.00 0.12 0.01 52 1015.7
20220516010118 69 250 0.0 4.0 0.00 0.12 0.01 52 1015.5
20220516005631 69 250 0.0 4.0 0.00 0.12 0.01 51 1015.6
20220516005120 69 250 3.0 4.0 0.00 0.12 0.01 50 1015.5
20220516004632 70 261 0.0 10.0 0.00 0.12 0.01 49 1015.5
20220516004122 70 251 3.0 10.0 0.00 0.12 0.01 49 1015.5
20220516003633 70 265 0.0 0.0 0.00 0.12 0.01 47 1015.5
20220516003123 70 268 0.0 0.0 0.00 0.12 0.01 47 1015.5
20220516002616 70 268 0.0 0.0 0.00 0.12 0.01 47 1015.5
20220516002122 70 269 0.0 4.0 0.00 0.12 0.01 47 1015.5
20220516001632 70 265 1.0 4.0 0.00 0.12 0.01 46 1015.5
20220516001121 70 255 1.0 3.0 0.00 0.12 0.01 48 1015.6
20220516000632 70 261 0.0 0.0 0.00 0.12 0.01 50 1015.5
20220516000121 71 273 0.0 3.0 0.00 0.12 0.01 50 1015.6
20220515235632 70 259 1.0 3.0 0.00 0.12 0.01 48 1015.5
20220515235119 71 263 0.0 0.0 0.00 0.12 0.01 47 1015.6
20220515234631 71 269 0.0 5.0 0.00 0.12 0.01 48 1015.6
20220515234121 71 293 0.0 7.0 0.00 0.12 0.01 47 1015.5
20220515233631 71 271 0.0 7.0 0.00 0.12 0.01 46 1015.6
20220515233121 71 342 1.0 6.0 0.00 0.12 0.01 45 1015.6
20220515232615 71 315 1.0 4.0 0.00 0.12 0.01 46 1015.7
20220515232128 71 311 0.0 2.0 0.00 0.12 0.01 44 1015.8
20220515231617 72 333 0.0 8.0 0.00 0.12 0.01 46 1015.8
20220515231129 72 251 1.0 8.0 0.00 0.12 0.01 47 1015.8
20220515230618 72 248 2.0 7.0 0.00 0.12 0.01 46 1015.8
20220515230129 72 329 2.0 4.0 0.00 0.12 0.01 44 1015.8
20220515225613 72 340 0.0 0.0 0.00 0.12 0.01 46 1015.8
20220515225124 72 340 0.0 6.0 0.00 0.12 0.01 48 1015.7
20220515224613 72 304 1.0 6.0 0.00 0.12 0.01 46 1015.7
20220515224123 72 334 0.0 10.0 0.00 0.12 0.01 45 1015.6
20220515223630 72 262 2.0 10.0 0.00 0.12 0.01 47 1015.7
20220515223118 72 268 1.0 8.0 0.00 0.12 0.01 46 1015.7
20220515222629 72 246 4.0 9.0 0.00 0.12 0.01 47 1015.7
20220515222118 72 330 0.0 9.0 0.00 0.12 0.01 46 1015.8
20220515221628 72 332 1.0 10.0 0.00 0.12 0.01 48 1015.7
20220515221119 72 266 0.0 10.0 0.00 0.12 0.01 48 1015.8
20220515220626 72 308 1.0 4.0 0.00 0.12 0.01 51 1015.8
20220515220120 72 336 1.0 4.0 0.00 0.12 0.01 49 1015.8
20220515215632 71 331 0.0 0.0 0.00 0.12 0.01 48 1015.8
20220515215121 71 105 0.0 0.0 0.00 0.12 0.01 48 1015.8
20220515214631 71 18 0.0 3.0 0.00 0.12 0.01 53 1016.0
20220515214119 71 96 0.0 7.0 0.00 0.12 0.01 52 1016.0
20220515213629 71 61 1.0 7.0 0.00 0.12 0.01 58 1016.1
20220515213118 70 355 2.0 10.0 0.00 0.12 0.01 52 1016.1
20220515212629 70 53 2.0 12.0 0.00 0.12 0.01 54 1016.1
20220515212117 70 205 2.0 12.0 0.00 0.12 0.01 55 1016.3
20220515211629 70 76 2.0 10.0 0.00 0.12 0.01 55 1016.2
20220515211116 70 75 2.0 12.0 0.00 0.12 0.01 54 1016.2
20220515210627 69 15 7.0 12.0 0.00 0.12 0.01 55 1016.3
20220515210117 69 88 0.0 3.0 0.00 0.12 0.01 58 1016.4
20220515205626 69 72 0.0 3.0 0.00 0.12 0.01 54 1016.6
20220515205116 70 327 0.0 0.0 0.00 0.12 0.01 56 1016.6
20220515204629 70 106 0.0 3.0 0.00 0.12 0.01 60 1016.8
20220515204119 69 92 0.0 5.0 0.00 0.12 0.01 59 1016.7
20220515203630 68 284 0.0 10.0 0.00 0.12 0.01 61 1016.7
20220515203117 69 34 1.0 10.0 0.00 0.12 0.01 58 1016.7
20220515202626 69 338 0.0 8.0 0.00 0.12 0.01 58 1016.8
20220515202116 69 83 1.0 11.0 0.00 0.12 0.01 58 1016.8
20220515201626 70 88 4.0 11.0 0.00 0.12 0.01 57 1016.8
20220515201115 70 313 2.0 9.0 0.00 0.12 0.01 59 1016.8
20220515200625 70 342 0.0 5.0 0.00 0.12 0.01 61 1016.9
20220515200115 69 80 0.0 9.0 0.00 0.12 0.01 61 1016.9
20220515195625 69 62 2.0 9.0 0.00 0.12 0.01 59 1016.9
20220515195119 69 66 2.0 7.0 0.00 0.12 0.01 61 1017.0
20220515194630 68 65 0.0 4.0 0.00 0.12 0.01 66 1017.0
20220515194120 67 16 0.0 3.0 0.00 0.12 0.01 64 1017.3
20220515193631 66 49 0.0 3.0 0.00 0.12 0.01 64 1017.2
20220515193121 66 338 0.0 0.0 0.00 0.12 0.01 64 1017.2
20220515192632 65 24 0.0 5.0 0.00 0.12 0.01 65 1017.2
20220515192121 65 83 0.0 10.0 0.00 0.12 0.01 68 1017.2
20220515191632 65 15 1.0 10.0 0.00 0.12 0.01 66 1017.2
20220515191121 64 48 0.0 9.0 0.00 0.12 0.01 66 1017.3
20220515190632 65 55 0.0 0.0 0.00 0.12 0.01 67 1017.3
20220515190120 65 36 0.0 9.0 0.00 0.12 0.01 68 1017.4